Location: Leuk
(46.3174°N, 7.6341°E)
Time: 07:30:54
(UTC+00:00)

Cosmos 1553 Rocket - Pass Details

Date: 09 March 2021
Orbit: 941 x 1008 km, 82.9° (Epoch: 18 April)

Event Time Altitude Azimuth Distance (km) Brightness Sun altitude
Exits shadow 02:32:43 61° 53° (NE) 1,108 4.4 -33.9°
Drops below altitude 10° 02:38:08 10° 13° (NNE) 2,729 6.8 -33.2°
Sets 02:40:38 0° 11° (NNE) 3,670 7.6 -32.8°
